Jackson, MI

9:23 PM EDT on May 26, 2017 (GMT -0400)
Jackson County-Reynolds

Weather History for KJXN - December, 2013

Change the Weather History Date:

Friday, December 20, 2013

  Actual Average Record
Temperature  
Mean Temperature 38 °F 27 °F  
Max Temperature 42 °F 33 °F 58 °F (1949)
Min Temperature 33 °F 20 °F -6 °F (1963)
Degree Days  
Heating Degree Days 27 38  
Month to date heating degree days 782 707  
Since 1 July heating degree days 2253 2111  
Cooling Degree Days 0 0  
Month to date cooling degree days 0 0  
Year to date cooling degree days 616 592  
Moisture  
Dew Point 35 °F    
Average Humidity 96    
Maximum Humidity 100    
Minimum Humidity 92    
Precipitation  
Precipitation 0.29 in 0.05 in 0.69 in (1957)
Month to date precipitation 0.85 1.22  
Year to date precipitation 31.85 30.85  
Sea Level Pressure  
Sea Level Pressure 29.76 in    
Wind  
Wind Speed 5 mph (ENE)    
Max Wind Speed 10 mph    
Max Gust Speed 14 mph    
Visibility 2 miles    
Events Fog , Rain    
T = Trace of Precipitation, MM = Missing Value Source: NWS Daily Summary

Daily Weather History Graph

Daily Weather History Graph

Search for Another Location

Airport or City:

Trip Planner

Search our weather history database for the weather conditions in past years. The results will help you decide how hot, cold, wet, or windy it might be!

Date:

Astronomy

Dec. 20, 2013 Rise Set
Actual Time 8:02 AM EST 5:08 PM EST
Civil Twilight 7:31 AM EST 5:40 PM EST
Nautical Twilight 6:55 AM EST 6:15 PM EST
Astronomical Twilight 6:21 AM EST 6:49 PM EST
Moon 8:31 PM EST (12/20) 9:53 AM EST (12/20)
Length of Visible Light 10h 09m
Length of Day
9h 05m
Waning Gibbous, 90% of the Moon is Illuminated
Dec 20
Waning Gibbous
Dec 25
Last Quarter
Jan 1
New
Jan 7
First Quarter
Jan 15
Full

Hourly Weather History & Observations

Time (EST) Temp. Windchill Dew Point Humidity Pressure Visibility Wind Dir Wind Speed Gust Speed Precip Events Conditions
12:31 AM 36.0 °F 32.1 °F 34.0 °F 93% 29.85 in 0.8 mi East 4.6 mph - N/A   Overcast
12:43 AM 36.0 °F - 34.0 °F 93% 29.84 in 0.8 mi Calm Calm - N/A   Overcast
12:56 AM 36.0 °F 32.1 °F 34.0 °F 93% 29.86 in 0.8 mi East 4.6 mph - N/A   Overcast
1:56 AM 35.1 °F - 34.0 °F 96% 29.84 in 0.2 mi Calm Calm - 0.02 in Fog , Rain Light Rain
2:56 AM 36.0 °F 33.3 °F 35.1 °F 97% 29.83 in 0.2 mi SE 3.5 mph - 0.01 in Fog Fog
3:03 AM 36.0 °F 33.3 °F 36.0 °F 100% 29.81 in 0.5 mi SE 3.5 mph - N/A Fog Fog
3:34 AM 39.0 °F 36.8 °F 37.9 °F 96% 29.80 in 0.8 mi South 3.5 mph - 0.02 in Rain Light Rain
3:45 AM 39.9 °F 35.1 °F 39.9 °F 100% 29.80 in 1.8 mi South 6.9 mph - 0.02 in   Overcast
3:52 AM 39.2 °F 35.0 °F 39.2 °F 100% 29.79 in 2.0 mi South 5.8 mph - 0.02 in Rain Light Rain
3:56 AM 41.0 °F 36.4 °F 39.9 °F 96% 29.81 in 2.0 mi South 6.9 mph - 0.02 in Rain Light Rain
4:12 AM 41.0 °F 36.4 °F 39.9 °F 96% 29.79 in 3.0 mi South 6.9 mph - 0.01 in   Overcast
4:56 AM 41.0 °F 36.4 °F 39.0 °F 93% 29.79 in 2.0 mi SSW 6.9 mph - 0.01 in   Overcast
5:08 AM 41.0 °F 38.0 °F 39.9 °F 96% 29.76 in 1.8 mi SSW 4.6 mph - 0.00 in Rain Light Rain
5:18 AM 39.9 °F 35.8 °F 39.9 °F 100% 29.76 in 2.0 mi SSW 5.8 mph - 0.00 in   Overcast
5:56 AM 42.1 °F 36.6 °F 41.0 °F 96% 29.78 in 2.5 mi SW 9.2 mph - 0.01 in   Overcast
6:33 AM 42.1 °F 38.4 °F 41.0 °F 96% 29.77 in 2.0 mi SW 5.8 mph - 0.01 in   Overcast
6:54 AM 41.0 °F 38.0 °F 39.2 °F 93% 29.77 in 1.8 mi WSW 4.6 mph - 0.01 in Rain Light Rain
6:56 AM 41.0 °F 39.0 °F 41.0 °F 100% 29.79 in 1.8 mi WSW 3.5 mph - 0.01 in Rain Light Rain
7:47 AM 39.9 °F 35.1 °F 39.9 °F 100% 29.76 in 2.0 mi SSW 6.9 mph - 0.01 in   Overcast
7:56 AM 41.0 °F 35.8 °F 39.9 °F 96% 29.78 in 2.5 mi SSW 8.1 mph - 0.01 in   Overcast
8:38 AM 41.0 °F 37.1 °F 39.9 °F 96% 29.76 in 1.2 mi SW 5.8 mph - 0.01 in Rain Light Rain
8:56 AM 41.0 °F 36.4 °F 39.9 °F 96% 29.79 in 1.5 mi SSW 6.9 mph - 0.01 in   Overcast
9:23 AM 41.0 °F 39.0 °F 39.9 °F 96% 29.78 in 0.8 mi Variable 3.5 mph - 0.01 in Rain Light Rain
9:56 AM 39.0 °F 35.7 °F 37.9 °F 96% 29.81 in 0.8 mi NNW 4.6 mph - 0.01 in   Overcast
10:14 AM 36.0 °F 31.1 °F 35.1 °F 97% 29.79 in 1.2 mi North 5.8 mph - N/A   Overcast
10:56 AM 35.1 °F 32.2 °F 34.0 °F 96% 29.83 in 1.8 mi North 3.5 mph - N/A   Overcast
11:56 AM 34.0 °F 29.8 °F 33.1 °F 96% 29.81 in 1.2 mi NE 4.6 mph - N/A   Overcast
12:09 PM 34.0 °F 28.8 °F 33.1 °F 96% 29.77 in 0.8 mi NNE 5.8 mph - N/A   Overcast
12:25 PM 34.0 °F 28.0 °F 33.1 °F 96% 29.77 in 1.0 mi NNE 6.9 mph - N/A   Overcast
12:56 PM 34.0 °F 28.8 °F 32.0 °F 92% 29.79 in 1.2 mi NNE 5.8 mph - 0.00 in   Overcast
1:56 PM 33.1 °F 30.0 °F 32.0 °F 96% 29.77 in 1.0 mi ENE 3.5 mph - 0.00 in   Overcast
2:31 PM 34.0 °F 31.0 °F 33.1 °F 96% 29.73 in 2.5 mi ENE 3.5 mph - 0.01 in   Overcast
2:39 PM 34.0 °F 31.0 °F 33.1 °F 96% 29.72 in 4.0 mi ENE 3.5 mph - 0.01 in   Overcast
2:56 PM 34.0 °F 31.0 °F 33.1 °F 96% 29.75 in 3.0 mi ENE 3.5 mph - 0.02 in Rain Light Rain
3:06 PM 34.0 °F 29.8 °F 33.1 °F 96% 29.72 in 2.0 mi NNE 4.6 mph - 0.00 in   Overcast
3:13 PM 34.0 °F 29.8 °F 33.1 °F 96% 29.72 in 1.5 mi NNE 4.6 mph - 0.01 in Rain Light Rain
3:22 PM 34.0 °F 28.8 °F 33.1 °F 96% 29.73 in 3.0 mi NNE 5.8 mph - 0.01 in Rain Light Rain
3:40 PM 34.0 °F 29.8 °F 33.1 °F 96% 29.73 in 1.8 mi NNE 4.6 mph - 0.01 in   Overcast
3:56 PM 34.0 °F 29.8 °F 33.1 °F 96% 29.76 in 1.2 mi NNE 4.6 mph - 0.01 in   Overcast
4:56 PM 34.0 °F 29.8 °F 33.1 °F 96% 29.75 in 2.0 mi East 4.6 mph - 0.06 in Rain Light Rain
5:09 PM 34.0 °F 29.8 °F 33.1 °F 96% 29.73 in 6.0 mi East 4.6 mph - 0.00 in   Overcast
5:23 PM 34.0 °F - 33.1 °F 96% 29.73 in 6.0 mi Calm Calm - 0.00 in   Overcast
5:36 PM 34.0 °F 29.8 °F 33.1 °F 96% 29.72 in 1.8 mi East 4.6 mph - 0.01 in Rain Light Rain
5:49 PM 34.0 °F 31.0 °F 33.1 °F 96% 29.73 in 2.5 mi ENE 3.5 mph - 0.02 in Rain Light Rain
5:56 PM 34.0 °F 29.8 °F 33.1 °F 96% 29.75 in 2.5 mi North 4.6 mph - 0.02 in Rain Light Rain
6:23 PM 34.0 °F 31.0 °F 33.1 °F 96% 29.74 in 1.8 mi NNE 3.5 mph - 0.02 in Rain Light Rain
6:32 PM 34.0 °F 31.0 °F 33.1 °F 96% 29.73 in 2.5 mi NNE 3.5 mph - 0.02 in   Overcast
6:56 PM 34.0 °F 31.0 °F 33.1 °F 96% 29.77 in 2.5 mi North 3.5 mph - 0.03 in Rain Light Rain
7:09 PM 34.0 °F 31.0 °F 33.1 °F 96% 29.74 in 4.0 mi NNE 3.5 mph - 0.00 in   Overcast
7:25 PM 34.0 °F 31.0 °F 33.1 °F 96% 29.75 in 2.5 mi North 3.5 mph - 0.00 in   Overcast
7:48 PM 34.0 °F 31.0 °F 33.1 °F 96% 29.74 in 1.8 mi Variable 3.5 mph - 0.01 in   Overcast
7:56 PM 34.0 °F 29.8 °F 33.1 °F 96% 29.76 in 2.5 mi East 4.6 mph - 0.01 in   Overcast
8:07 PM 34.0 °F 31.0 °F 33.1 °F 96% 29.74 in 1.5 mi NE 3.5 mph - 0.00 in   Overcast
8:39 PM 34.0 °F 31.0 °F 33.1 °F 96% 29.73 in 2.0 mi East 3.5 mph - 0.00 in   Overcast
8:56 PM 34.0 °F 31.0 °F 33.1 °F 96% 29.76 in 1.8 mi NE 3.5 mph - 0.00 in   Overcast
9:22 PM 34.0 °F 29.8 °F 33.1 °F 96% 29.73 in 2.5 mi East 4.6 mph - 0.01 in Rain Light Rain
9:39 PM 34.0 °F 31.0 °F 33.1 °F 96% 29.73 in 1.5 mi East 3.5 mph - 0.01 in   Overcast
9:56 PM 34.0 °F - 33.1 °F 96% 29.75 in 1.5 mi Calm Calm - 0.03 in Rain Light Rain
10:12 PM 34.0 °F 31.0 °F 33.1 °F 96% 29.72 in 2.5 mi East 3.5 mph - 0.00 in   Overcast
10:38 PM 34.0 °F - 33.1 °F 96% 29.72 in 1.8 mi Calm Calm - 0.00 in Rain Light Rain
10:49 PM 34.0 °F - 33.1 °F 96% 29.71 in 2.0 mi Calm Calm - 0.00 in   Overcast
10:56 PM 34.0 °F 31.0 °F 33.1 °F 96% 29.73 in 2.0 mi ESE 3.5 mph - 0.00 in   Overcast
11:11 PM 34.0 °F - 34.0 °F 100% 29.70 in 1.2 mi Calm Calm - N/A   Overcast
11:24 PM 34.0 °F - 33.1 °F 96% 29.70 in 0.8 mi Calm Calm - N/A   Overcast
11:56 PM 34.0 °F 31.0 °F 33.1 °F 96% 29.74 in 0.5 mi NNW 3.5 mph - N/A Fog Fog